Home   Weather   Terre Haute   Past weeks

Flag for USA Past Weather in Terre Haute, Indiana, USA — Yesterday and Last 2 Weeks

Now
86 °F

Scattered clouds.


Feels Like: 89 °F
Forecast: 65 / 87 °F
Wind: 7 mph from South

Location: Terre Haute International Airport - Hulman Field

Current Time: Sep 25, 2016 at 6:36:53 PM

Latest Report: Sep 25, 2016 at 5:53 PM


Visibility: 10 mi

Pressure: 29.96 "Hg

Humidity: 53%

Dew Point: 67 °F

Location of Terre HauteLocation

Past Weather in Terre Haute — Graph

°F

Terre Haute Temperature Yesterday

Maximum temperature yesterday: 87 °F (at 3:53 PM)
Minimum temperature yesterday: 62 °F (at 8:03 AM)
Average temperature yesterday: 73 °F

High & Low Weather Summary for the Past Weeks

 TemperatureHumidityPressure
High88 °F (Sep 20, 4:53 PM)97% (Sep 13, 4:53 AM)30.24 "Hg (Sep 13, 4:53 AM)
Low53 °F (Sep 11, 5:53 AM)34% (Sep 21, 4:53 PM)29.90 "Hg (Sep 10, 4:53 PM)
Average70 °F76%30.08 "Hg
* Reported Sep 10 4:53 PM — Sep 25 4:53 PM, Terre Haute, Weather by CustomWeather, © 2016

Note: Actual official high and low records may vary slightly from our data, if they occured in-between our weather recording intervals... More about our weather records

Advertising

Terre Haute Weather History for the Previous 24 Hours

Scroll right to see more
 ConditionsComfort  
Time TempWeatherWind HumidityBarometerVisibility
4:53 PM
Sun, Sep 25
87 °FSunny.9 mph51%29.97 "Hg10 mi
3:53 PM87 °FScattered clouds.8 mph50%30.00 "Hg10 mi
2:53 PM87 °FSunny.9 mph51%30.02 "Hg10 mi
1:53 PM86 °FSunny.3 mph55%30.06 "Hg10 mi
12:53 PM83 °FSunny.7 mph61%30.07 "Hg10 mi
11:53 AM80 °FSunny.6 mph67%30.08 "Hg10 mi
10:53 AM76 °FSunny.8 mph74%30.09 "Hg10 mi
9:53 AM73 °FPartly sunny.8 mph81%30.10 "Hg9 mi
8:53 AM68 °FFog.3 mph90%30.10 "Hg5 mi
7:53 AM65 °FFog.3 mph94%30.09 "Hg3 mi
6:53 AM64 °FFog.3 mph97%30.08 "Hg5 mi
5:53 AM65 °FFog.3 mph94%30.08 "Hg5 mi
4:53 AM66 °FFog.No wind93%30.08 "Hg6 mi
3:53 AM67 °FFog.No wind90%30.08 "Hg6 mi
2:53 AM67 °FClear.5 mph90%30.09 "Hg7 mi
1:53 AM67 °FClear.5 mph90%30.10 "Hg8 mi
12:53 AM71 °FClear.No wind84%30.10 "Hg9 mi
11:53 PM
Sat, Sep 24
72 °FClear.6 mph84%30.09 "Hg9 mi
10:53 PM73 °FClear.7 mph81%30.07 "Hg9 mi
9:53 PM73 °FClear.6 mph81%30.07 "Hg10 mi
8:53 PM73 °FClear.3 mph81%30.06 "Hg10 mi
7:53 PM77 °FClear.6 mph71%30.06 "Hg10 mi
6:53 PM81 °FSunny.7 mph65%30.06 "Hg10 mi
Weather by CustomWeather, © 2016

See weather overviewHow to use our weather pages